Location: Lombard
(41.8800°N, 88.0080°W)
Time: 01:03:21
(UTC-05:00)

Gurwin Techsat 1B - Pass Details

Date: 25 May 2022
Orbit: 811 x 814 km, 98.8° (Epoch: 27 June)

Event Time Altitude Azimuth Distance (km) Brightness Sun altitude
Rises 04:34:58 0° 1° (N) 3,344 12.4 -8.3°
Reaches altitude 10° 04:37:42 10° 348° (NNW) 2,408 11.4 -7.9°
Maximum altitude 04:41:53 24° 296° (WNW) 1,619 10.0 -7.3°
Drops below altitude 10° 04:46:03 10° 244° (WSW) 2,394 10.4 -6.7°
Enters shadow 04:46:39 - 240° (WSW) 2,587 10.6 -6.6°
